AEHF-5 (USA 292)

Last updated on Jan. 21, 2021, 6:16 a.m. UTC

1 44481U 19051A   21020.89829413  .00000096  00000-0  00000-0 0  9991
2 44481   5.5123 306.8504 0004040 345.6148 205.9394  1.00276335  5480
UTC
Height (km)
Latitude
Longitude
Inclination
Orbital Period
UTC large
Height (km)
Speed (km/s)
/
Latitude / Longitude
Inclination (degrees)
Orbital Period (minutes)
Azimuth
Elevation
Range (km)
Doppler Factor
iOS Compass Heading
iOS Angle

Next 30 passes for location: Hong Kong

Rise time Rise Azimuth (degrees) Set time Set Azimuth (degrees) Duration Max altitude (degrees)

No matching passes for this satellites